Retour au catalogue

S-Net B

S-NET B

ActifRadio amateurSSO
NORAD 43187·PAYLOAD·🇩🇪 Germany

Lancé Feb 1, 2018 depuis Vostochny Cosmodrome

Loading…

Prochains Passages (prochaines 24 heures)

TLE

FraisSource: AMSAT

Époque: Sep 14, 2026, 04:35 UTC

1 43187U 18014H   26257.19103938  .00003450  00000-0  17612-3 0  9995
2 43187  97.5258 161.4092 0010362  69.4341 290.8003 15.17340993472257

Suivez S-Net B en temps réel avec AllMySat

Download on the App Store